Location: Crni Vrh Observatory
(45.9460°N, 14.0712°E)
Time: 19:08:42
(UTC+01:00)

OTV 5 (USA 277) - Visible Passes

Search period start: 17 January 2018 00:00
Search period end: 27 January 2018 00:00
Orbit: 404 x 417 km, 43.0° (Epoch: 07 September)

Date Brightness Start Highest point End Pass type
(mag) Time Alt. Az. Time Alt. Az. Time Alt. Az.
22 Jan ? 18:33:23 10° SSE 18:33:53 11° SSE 18:33:53 11° SSE visible
23 Jan ? 19:17:04 10° SW 19:18:11 17° SSW 19:18:11 17° SSW visible
24 Jan ? 18:26:27 10° SSW 18:29:01 20° SSE 18:29:40 19° SE visible
25 Jan ? 17:36:04 10° S 17:38:06 15° SSE 17:40:10 10° ESE visible
25 Jan ? 19:11:44 10° WSW 19:13:51 30° SSW 19:13:51 30° SSW visible
26 Jan ? 18:20:51 10° SW 18:23:56 33° SSE 18:25:15 24° ESE visible
26 Jan ? 19:57:42 10° WSW 19:58:01 12° WSW 19:58:01 12° WSW visible
